Lapse_Rate
7.2 7.2 7.4 7.5 7.7 7.7 8.1 8.6 9.0 8.4 8.5 8.8 8.5 8.0 7.5 7.8 7.7 7.5 7.7 8.0 7.7 7.6 7.7 7.5 7.5 7.4 7.3 7.2 7.1 7.1 6.9 6.7 6.5 6.4 6.3 6.3 6.3 6.3 6.3 6.3 6.2 6.1 6.1 6.1 6.1 6.2 6.1 6.1 6.0
7.1 7.3 7.6 7.7 7.7 8.2 8.4 7.9 8.6 8.3 8.0 7.9 8.2 7.7 7.6 7.7 7.6 7.4 7.4 7.5 7.5 7.8 7.7 7.6 7.5 7.4 7.3 7.1 7.1 7.1 7.1 6.8 6.6 6.5 6.5 6.4 6.4 6.3 6.3 6.2 6.2 6.2 6.1 6.2 6.2 6.2 6.2 6.2 6.1
7.0 7.5 7.6 7.5 7.6 8.3 8.6 8.8 8.2 8.5 8.1 8.0 7.5 7.8 8.0 7.3 7.8 7.6 7.2 7.4 7.4 7.7 7.8 7.7 7.5 7.4 7.3 7.2 7.0 7.0 7.0 6.9 6.7 6.6 6.5 6.4 6.4 6.4 6.3 6.3 6.3 6.3 6.2 6.3 6.3 6.3 6.3 6.2 6.2
7.3 7.6 7.3 6.8 8.2 8.9 8.7 8.6 8.4 8.1 7.8 7.9 7.6 7.4 7.7 7.8 7.8 7.5 7.5 7.5 7.6 7.6 7.7 7.7 7.5 7.3 7.2 7.1 7.0 6.9 6.9 6.9 6.8 6.7 6.5 6.5 6.4 6.4 6.4 6.5 6.5 6.6 6.5 6.4 6.3 6.3 6.4 6.3 6.3
7.3 7.4 7.2 7.4 8.2 9.4 9.2 8.7 8.7 8.3 7.8 8.1 7.9 7.4 7.6 7.8 8.0 7.4 7.3 7.5 7.4 7.4 7.5 7.6 7.5 7.3 7.2 7.1 7.0 6.9 6.9 6.9 6.8 6.7 6.6 6.6 6.5 6.5 6.4 6.5 6.5 6.5 6.5 6.5 6.5 6.4 6.4 6.3 6.3
7.1 6.9 7.2 7.8 8.7 9.5 8.8 8.5 8.7 8.5 8.2 8.2 7.8 7.3 7.9 7.8 7.7 7.7 7.3 7.3 7.3 7.2 7.4 7.4 7.4 7.2 7.1 7.1 6.9 6.9 6.9 6.9 6.9 6.9 6.8 6.8 6.7 6.6 6.5 6.5 6.5 6.6 6.6 6.5 6.5 6.5 6.5 6.5 6.4
7.0 7.4 7.9 7.9 8.7 9.3 8.7 8.6 8.5 8.4 8.5 8.2 8.0 8.1 7.9 7.7 7.6 7.7 7.5 7.1 7.2 7.3 7.4 7.3 7.3 7.2 7.1 7.1 7.0 6.9 6.9 6.9 6.9 6.9 6.8 6.7 6.6 6.5 6.6 6.7 6.7 6.6 6.6 6.5 6.5 6.5 6.5 6.5 6.5
7.0 7.0 7.7 8.2 9.2 9.3 9.0 8.6 8.4 8.6 8.5 8.8 8.3 7.9 8.0 7.7 7.7 7.7 7.6 7.4 7.1 7.3 7.4 7.5 7.3 7.3 7.2 7.1 7.1 7.1 7.0 7.0 7.0 6.9 6.8 6.7 6.7 6.6 6.5 6.5 6.5 6.6 6.6 6.6 6.6 6.5 6.4 6.3 6.4
6.7 6.8 7.3 7.1 8.6 8.8 8.4 8.2 8.5 8.5 8.5 8.4 8.2 8.2 8.0 7.4 7.8 7.7 7.7 7.5 7.4 7.3 7.4 7.4 7.4 7.3 7.3 7.2 7.1 7.0 7.0 7.0 7.0 6.9 6.9 6.9 6.7 6.7 6.6 6.5 6.5 6.5 6.5 6.6 6.6 6.6 6.6 6.5 6.4
6.5 6.6 7.1 6.8 7.0 7.2 7.5 7.9 8.5 8.2 8.5 8.8 8.4 7.7 7.7 8.1 7.6 7.8 7.6 7.6 7.6 7.4 7.4 7.4 7.3 7.3 7.0 7.0 7.0 7.1 7.1 7.1 7.0 7.0 6.9 6.8 6.7 6.7 6.6 6.6 6.5 6.5 6.6 6.6 6.6 6.7 6.6 6.5 6.4
6.7 6.9 6.6 7.0 7.2 7.2 7.1 7.9 8.0 8.2 8.2 8.5 9.0 7.9 7.5 7.7 7.9 7.7 7.7 7.7 7.4 7.6 7.5 7.4 7.4 7.1 7.1 7.0 6.9 7.0 7.1 7.0 6.9 6.9 6.9 6.7 6.7 6.6 6.6 6.6 6.6 6.6 6.6 6.6 6.6 6.6 6.6 6.6 6.6
6.4 6.8 6.9 7.1 7.4 7.3 7.5 7.7 8.2 8.0 8.0 8.3 8.5 8.2 7.9 7.7 7.8 7.8 7.4 7.5 7.8 7.4 7.4 7.4 7.4 7.3 7.2 7.2 7.3 7.1 7.2 7.0 7.0 6.9 6.8 6.7 6.7 6.7 6.7 6.6 6.5 6.5 6.5 6.6 6.8 6.8 6.7 6.8 6.8
6.4 6.6 6.6 6.7 6.8 7.1 7.2 7.4 7.5 7.7 8.2 8.6 8.4 8.2 7.7 7.8 7.9 7.8 7.6 7.1 7.2 7.6 7.3 7.3 7.3 7.3 7.2 7.2 7.3 7.2 7.2 7.2 7.1 7.0 7.0 6.9 6.7 6.7 6.6 6.6 6.7 6.7 6.7 6.7 6.8 6.9 6.9 6.9 6.9
6.3 6.4 6.6 6.8 7.4 7.6 7.3 7.6 7.0 8.0 7.6 7.7 8.3 8.2 8.1 7.8 7.9 7.7 7.6 7.6 7.0 6.8 7.1 7.2 7.4 7.4 7.4 7.3 7.2 7.3 7.2 7.2 7.1 7.1 7.0 6.9 6.9 6.7 6.7 6.7 6.8 7.0 7.0 6.9 6.8 6.9 6.9 6.9 7.0
6.4 6.5 6.4 7.2 7.6 7.5 7.4 7.6 7.6 7.7 7.7 7.6 7.7 7.7 7.9 8.1 8.0 7.8 7.9 7.7 7.6 7.3 7.2 7.3 7.5 7.5 7.5 7.4 7.3 7.3 7.3 7.3 7.3 7.3 7.2 7.2 7.0 6.9 7.0 7.0 7.0 6.9 7.0 7.2 7.3 7.2 7.1 7.3 7.2
6.7 6.7 6.8 8.2 7.7 7.7 7.5 7.8 8.1 7.7 7.5 7.5 7.7 7.6 7.6 7.8 7.9 7.9 7.9 8.1 7.8 7.6 7.2 7.3 7.5 7.8 7.8 7.6 7.4 7.3 7.3 7.3 7.4 7.5 7.5 7.6 7.7 7.5 7.2 7.3 7.3 7.1 6.9 6.9 7.1 7.3 7.4 7.4 7.4
7.0 6.6 7.2 7.9 8.5 8.1 7.7 7.9 8.4 8.1 7.8 7.7 7.5 7.5 7.6 7.7 7.8 7.9 8.0 8.2 8.2 8.1 7.6 7.4 7.4 7.7 8.1 7.9 7.6 7.3 7.3 7.4 7.4 7.4 7.4 7.7 7.6 7.6 7.5 7.4 7.3 7.3 7.2 7.2 7.2 7.1 7.1 7.1 7.3
7.3 7.2 7.5 7.5 8.1 8.8 8.1 7.1 7.9 8.3 8.2 8.0 7.9 7.8 7.8 7.7 7.9 7.8 7.7 8.0 8.2 8.2 8.2 7.6 7.5 7.7 8.0 7.9 7.6 7.5 7.5 7.5 7.6 7.7 7.6 7.5 7.6 7.7 7.5 7.3 7.2 7.2 7.4 7.5 7.5 7.6 7.6 7.5 7.6
7.0 7.2 7.3 7.7 8.2 8.3 8.7 7.6 7.8 8.1 8.1 8.2 8.2 8.3 8.2 8.1 7.9 7.9 7.8 7.9 7.9 8.1 8.3 8.2 7.9 8.1 8.1 8.0 8.0 7.8 7.7 7.6 7.5 7.7 7.8 7.8 7.7 7.8 7.7 7.7 7.5 7.3 7.3 7.4 7.5 7.6 7.6 7.7 7.7
7.2 7.3 7.5 7.7 8.3 8.4 8.1 7.7 7.8 7.6 8.2 8.5 8.4 8.5 8.4 8.3 8.2 8.0 7.8 7.9 7.9 7.9 8.0 8.0 8.0 8.1 8.1 8.3 8.2 7.9 7.9 7.9 8.0 8.0 7.9 7.9 7.9 7.9 7.8 7.8 7.8 7.8 7.6 7.6 7.7 7.7 7.7 7.6 7.6
7.5 7.5 7.8 7.9 8.0 8.3 8.4 7.8 8.0 8.1 8.5 8.5 9.1 8.6 8.4 8.4 8.2 8.0 7.9 8.0 7.9 7.9 7.9 8.0 8.0 8.0 8.1 8.3 8.3 8.2 8.1 8.2 8.4 8.5 8.3 8.3 8.1 8.0 8.0 7.9 7.8 7.9 8.0 8.0 7.9 8.0 7.9 7.8 7.9
7.8 7.9 8.3 8.3 8.5 8.1 8.3 7.6 7.8 7.9 8.2 8.6 8.7 8.6 8.6 8.8 8.6 8.3 8.1 8.1 8.1 8.0 8.0 7.9 7.8 8.0 8.0 8.0 8.2 8.4 8.3 8.4 8.5 8.3 8.4 8.4 8.4 8.4 8.3 8.3 8.2 8.3 8.1 8.0 8.0 7.7 7.3 7.1 7.8
8.2 8.1 8.9 9.0 8.7 8.8 7.7 8.5 7.2 7.9 8.0 8.9 8.7 9.1 9.0 8.6 8.9 8.9 8.5 8.1 8.1 8.1 8.1 8.0 7.9 7.8 7.9 7.9 8.1 8.0 8.2 8.4 8.4 8.5 8.3 8.3 8.2 8.3 8.4 8.3 8.0 8.1 8.1 7.8 7.3 7.6 7.4 7.8 7.4
8.4 8.3 8.8 8.9 9.1 8.6 7.6 8.3 7.5 7.6 8.0 8.6 8.9 8.9 8.8 9.0 9.3 9.0 8.8 8.5 8.2 8.2 8.1 8.2 8.3 8.0 8.1 7.8 7.8 7.9 7.9 8.0 8.1 8.0 7.9 7.8 7.8 7.8 7.9 7.8 7.7 7.7 7.7 7.9 7.6 7.6 7.8 7.8 7.6
8.4 8.5 8.4 8.6 8.4 8.2 8.0 8.3 7.7 7.8 8.6 8.7 8.8 8.9 9.2 9.0 9.2 9.0 8.4 8.6 8.5 8.3 8.2 8.3 8.3 8.5 8.3 8.0 7.8 7.3 7.5 7.5 7.6 7.7 7.7 7.9 8.0 8.0 8.0 7.8 7.8 7.7 7.8 7.8 7.9 7.9 7.6 7.8 7.6
8.7 8.8 8.8 8.2 8.2 8.2 8.3 8.4 7.7 8.3 8.8 8.7 8.9 9.1 9.1 9.0 9.1 9.1 8.4 8.6 8.6 8.2 7.9 7.9 8.1 8.2 8.1 7.5 7.4 7.7 7.9 7.9 7.9 8.0 8.0 8.0 8.0 8.0 8.0 7.9 7.7 7.7 7.8 7.8 7.8 7.6 7.6 7.6 7.4
7.7 8.1 8.4 8.1 8.8 8.5 8.7 8.7 8.9 8.4 8.8 9.0 9.5 9.6 9.5 9.4 8.8 9.1 8.9 8.7 8.7 8.0 7.8 7.8 8.0 8.1 7.9 7.9 7.9 8.0 8.1 8.1 8.2 8.1 8.2 8.2 8.1 8.1 8.1 8.1 8.0 7.8 7.5 7.5 7.6 7.7 7.5 7.3 7.3
7.5 7.6 7.9 8.4 8.1 7.3 8.0 8.6 7.8 8.3 9.2 9.1 9.2 9.2 9.5 9.4 9.0 8.9 8.8 8.6 8.6 8.0 7.8 7.8 7.9 8.0 8.2 8.1 8.1 8.2 8.2 8.1 8.1 8.2 8.2 8.1 8.1 8.2 8.2 8.1 8.1 8.1 7.9 7.5 7.2 7.1 7.4 7.1 7.1
7.7 7.7 6.9 6.9 7.9 7.2 6.4 6.7 7.5 8.4 9.0 8.6 8.9 9.2 9.4 9.6 9.1 8.5 8.2 8.4 8.2 8.0 8.0 7.8 7.8 7.9 7.9 7.9 8.1 8.2 8.3 8.3 8.2 8.1 8.2 8.3 8.4 8.2 7.9 7.6 7.6 7.6 7.4 7.2 7.1 7.1 7.2 7.0 6.7
7.6 7.6 6.9 6.1 6.1 6.5 6.1 5.4 7.1 7.8 7.7 8.5 8.1 9.0 9.1 9.3 8.8 8.6 8.4 8.8 8.6 8.1 7.9 7.7 7.8 7.8 7.9 8.1 8.3 8.3 8.3 8.2 8.2 8.2 8.0 7.9 8.0 7.8 7.6 7.4 7.2 7.1 6.9 6.7 6.9 6.5 5.6 6.2 6.2
Wind_Speed
7 10 3 3 3 4 4 7 5 12 8 5 6 9 11 7 6 3 6 16 20 16 20 21 22 21 21 23 22 21 22 20 16 15 15 14 14 14 14 13 13 13 13 13 12 12 12 11 10
4 5 2 3 2 3 5 3 13 8 6 6 2 7 15 5 5 12 7 13 19 18 21 21 23 21 22 22 23 20 21 21 18 16 14 14 13 13 12 13 13 13 13 12 11 11 11 9 7
3 3 2 3 2 3 3 4 9 6 5 3 4 7 5 3 6 5 18 16 17 14 19 20 23 23 22 23 23 22 19 20 20 18 16 14 13 13 12 12 12 12 12 12 11 10 9 8 5
1 3 4 2 10 8 5 5 8 8 3 4 4 8 5 4 3 9 21 18 15 12 17 21 23 23 22 21 22 23 22 20 19 19 17 15 14 13 13 13 12 11 11 11 11 10 10 9 7
2 1 1 3 13 5 2 6 2 5 6 3 10 5 5 6 11 11 21 17 17 12 14 18 21 21 21 21 20 22 22 21 20 19 18 17 15 14 14 14 14 13 12 12 12 11 10 9 8
3 2 2 4 10 4 5 5 4 1 5 5 17 9 4 7 9 9 20 16 14 15 13 14 16 18 19 20 20 20 22 22 21 19 17 15 14 14 14 14 13 12 13 13 13 12 11 10 9
4 1 5 10 15 1 5 1 2 6 7 4 12 7 6 7 7 10 14 13 14 14 12 12 12 14 17 18 20 21 21 20 20 20 19 18 17 15 14 13 13 14 14 13 12 12 12 11 10
3 3 6 6 7 3 3 1 6 1 3 2 12 6 8 11 10 12 14 13 12 12 12 10 14 13 14 16 19 19 19 20 20 19 19 18 16 16 15 15 15 14 13 13 13 13 12 13 12
3 2 5 5 11 4 6 7 3 2 1 3 3 8 14 18 15 12 11 10 10 9 10 10 11 13 14 13 16 21 22 22 20 18 17 16 13 14 14 14 15 16 16 16 15 14 13 13 12
3 2 6 6 6 7 8 8 7 2 3 5 4 14 19 19 16 17 15 13 13 13 11 12 10 11 14 12 12 12 13 12 14 15 17 16 17 17 15 18 20 20 19 17 15 14 14 13 12
8 7 5 8 8 5 7 10 8 8 9 2 4 15 17 14 13 15 15 17 17 16 12 13 13 12 12 10 12 11 11 11 13 16 16 15 13 16 15 15 15 15 18 14 15 14 14 13 13
5 9 6 7 9 7 6 7 8 7 9 7 4 20 18 16 16 16 16 17 18 18 18 18 16 14 12 14 10 12 10 12 10 13 16 12 10 10 9 9 13 13 13 12 14 12 14 16 17
7 7 9 9 8 8 8 8 8 10 13 13 7 7 12 16 18 17 18 18 21 20 20 19 19 16 15 13 8 11 9 13 17 17 20 17 11 7 9 9 11 12 13 13 10 11 11 12 14
7 10 10 9 12 9 9 10 2 16 9 12 11 11 9 11 16 16 16 17 21 22 21 20 22 20 18 15 13 10 13 16 17 17 19 23 17 11 8 6 7 10 15 15 14 10 9 9 11
12 10 10 12 15 11 8 7 7 13 18 10 10 10 10 10 10 15 18 15 17 21 24 22 22 22 21 20 14 8 10 15 10 15 21 24 22 15 12 7 8 9 15 17 14 12 12 7 9
9 7 6 15 10 10 11 10 12 9 4 9 10 8 8 11 10 11 12 11 14 20 22 23 19 23 22 20 15 12 5 8 10 16 18 23 24 22 12 9 9 14 13 9 7 8 9 9 8
5 10 10 15 5 5 6 8 13 11 8 9 8 9 10 10 10 10 10 11 12 14 22 22 21 22 23 19 15 15 11 6 6 11 13 19 24 24 14 10 7 12 8 9 7 7 6 5 6
7 7 9 7 9 2 5 9 9 8 8 11 10 11 11 11 13 11 10 9 10 11 19 21 19 19 19 13 10 9 9 7 5 7 7 13 17 22 15 10 10 8 5 8 9 10 7 9 9
16 18 17 15 13 4 6 8 11 9 7 10 10 10 10 12 14 10 10 8 8 6 15 20 18 15 13 11 11 9 11 9 5 4 7 10 12 15 11 11 10 7 11 12 7 10 8 8 3
18 18 16 13 14 9 8 11 8 10 9 10 9 10 9 4 7 8 7 2 3 4 13 16 18 17 16 12 11 6 8 5 8 6 5 9 9 11 12 13 11 12 10 7 10 7 8 8 6
19 16 12 14 16 16 8 16 11 12 19 15 20 9 7 7 2 6 7 7 6 9 4 11 17 17 15 11 7 3 3 1 2 5 8 6 9 10 11 13 12 11 10 11 11 8 12 12 8
19 15 17 16 9 10 7 15 8 9 19 10 10 10 9 9 9 6 6 6 6 3 7 7 8 11 13 13 11 10 8 7 9 8 4 8 11 12 12 13 13 14 11 13 10 11 13 10 14
16 10 13 14 9 4 13 2 8 7 11 19 10 10 10 11 11 10 9 7 5 5 4 6 8 13 9 11 11 9 7 5 4 4 7 6 6 11 14 13 11 11 11 13 14 13 10 12 13
16 20 18 9 6 11 15 6 16 10 11 16 22 9 10 10 10 12 10 9 4 4 5 3 6 5 14 14 9 10 8 6 4 2 2 4 4 4 8 9 11 10 11 11 10 11 12 11 11
16 16 11 12 11 12 12 7 15 5 17 18 19 17 13 12 12 13 11 9 6 3 4 5 8 6 9 9 8 7 6 5 3 2 3 4 3 3 5 4 7 8 10 14 15 15 14 15 12
19 16 12 20 14 14 14 19 15 22 17 19 16 10 11 12 15 14 12 10 9 6 6 3 6 7 8 8 8 7 6 3 2 4 4 4 3 4 4 5 4 6 7 9 10 10 12 13 11
7 14 8 11 15 13 16 16 9 14 17 11 7 10 13 11 12 15 14 12 10 9 7 8 10 10 11 10 8 8 7 7 5 6 6 5 6 7 9 8 7 7 7 6 5 7 12 10 11
8 8 10 5 9 15 16 17 16 17 18 8 9 5 12 16 13 14 13 11 10 10 8 8 8 9 9 9 8 7 7 9 9 8 9 8 8 10 9 9 8 7 7 7 7 7 8 9 9
10 5 5 11 3 4 4 11 11 11 22 4 9 10 11 14 17 15 14 14 13 12 9 7 9 11 10 10 10 11 9 9 9 8 6 6 5 6 7 7 7 9 10 11 8 9 10 10 13
15 4 13 8 6 3 3 8 15 21 18 23 24 8 5 7 13 15 15 17 14 15 12 8 8 9 8 7 8 8 7 7 7 7 6 7 7 7 6 7 7 11 12 11 11 9 8 9 11
Wind_Direction
292 285 160 358 44 89 279 320 101 50 50 54 24 68 87 85 80 169 82 119 128 137 145 145 145 146 144 142 143 142 140 138 141 139 136 132 127 121 123 126 124 125 125 125 120 113 107 98 90
313 316 104 274 82 66 290 234 79 87 110 129 142 96 77 76 81 110 94 136 137 141 145 146 147 149 148 147 147 148 148 145 149 147 145 142 137 135 135 137 138 137 137 132 130 124 118 105 97
306 195 60 178 197 168 234 225 114 112 167 177 134 78 68 105 124 125 133 141 135 138 140 149 150 154 153 152 153 153 155 153 155 154 154 154 151 148 148 149 149 148 147 145 145 140 136 133 128
314 28 322 110 275 253 200 111 132 147 146 62 88 87 90 40 81 127 138 135 129 134 141 153 156 157 156 160 158 157 158 160 160 160 159 162 164 161 160 162 161 160 157 160 162 160 160 159 167
150 345 271 238 241 232 123 40 35 135 125 117 96 102 84 62 105 114 142 136 137 132 140 157 160 158 160 163 163 162 162 165 167 168 169 171 171 171 175 175 173 173 174 174 170 174 181 182 191
347 133 341 289 311 148 86 84 315 61 158 171 99 103 107 117 116 126 139 140 135 133 140 155 162 162 164 165 168 167 168 171 173 173 176 180 180 181 184 184 185 188 188 188 184 187 195 200 213
179 96 254 282 290 69 121 180 47 26 32 62 135 124 141 125 163 125 122 125 128 133 136 148 168 173 169 170 172 173 173 175 177 179 183 186 190 190 196 199 198 196 197 200 200 200 202 212 221
182 128 321 287 272 132 138 87 103 32 253 201 138 153 166 169 150 124 124 120 131 136 145 153 165 170 172 172 178 178 180 185 185 187 192 194 198 199 202 202 204 209 210 210 211 214 217 218 222
291 32 294 287 0 343 15 13 347 211 184 290 124 142 152 152 144 136 134 131 138 146 154 164 162 170 178 179 181 183 187 190 190 192 198 200 201 207 211 213 213 213 213 216 221 224 224 227 236
141 181 247 267 324 345 349 9 314 356 260 282 74 120 140 147 157 153 158 166 158 165 170 169 172 171 173 190 183 183 185 186 187 189 195 200 206 210 210 214 216 218 218 220 225 229 234 238 241
247 248 265 302 302 341 327 330 318 10 324 97 68 142 153 160 166 166 169 172 179 171 171 178 174 178 175 187 164 180 186 188 196 195 196 201 211 223 214 209 214 211 216 215 221 227 230 231 236
230 266 285 286 300 319 314 306 312 305 263 285 320 167 164 169 180 177 181 183 177 182 178 176 178 176 187 187 172 179 180 184 192 202 200 191 212 218 221 211 200 195 204 209 210 213 220 223 228
329 305 297 283 292 292 295 271 256 275 279 296 301 168 189 181 187 191 191 185 183 185 186 179 178 180 183 191 181 181 189 188 194 193 199 194 201 215 214 211 193 197 199 204 212 213 216 221 225
286 295 293 303 287 274 266 265 240 265 250 261 270 258 205 205 197 199 203 197 184 186 187 182 182 181 181 190 196 190 189 191 192 196 200 201 200 207 216 211 198 198 203 207 210 211 214 219 217
316 312 300 272 268 256 237 298 244 263 274 236 255 243 253 246 212 210 206 207 185 188 186 183 181 182 181 190 193 184 187 192 193 198 197 198 204 201 207 211 216 214 202 209 209 219 221 217 219
304 292 286 279 259 268 138 259 266 278 351 245 253 242 252 260 248 223 213 210 215 188 184 188 182 184 184 186 192 201 188 186 199 199 196 197 201 207 208 211 216 211 220 212 205 203 218 230 221
249 261 261 287 245 155 146 247 251 270 277 272 243 229 234 247 257 247 251 207 208 188 187 187 184 185 189 188 185 192 193 190 201 192 200 195 199 202 207 218 218 204 218 222 221 231 214 213 225
266 267 283 259 305 31 237 256 269 267 262 251 252 241 233 234 236 236 240 241 218 194 179 186 184 185 184 181 182 187 192 195 192 213 202 198 199 200 204 215 219 205 211 227 227 226 220 227 231
256 266 273 281 291 271 246 259 264 263 293 284 258 256 251 227 230 223 237 231 252 239 172 181 178 173 168 175 180 188 199 200 201 197 219 209 204 202 204 214 216 208 224 232 227 233 228 238 229
267 272 279 285 297 299 309 295 285 285 258 245 249 259 248 247 265 239 230 215 37 121 167 172 180 170 176 180 187 190 189 203 210 220 219 212 211 200 208 210 214 217 228 231 232 221 240 247 214
259 259 274 279 290 289 326 295 298 281 273 273 247 218 195 149 137 103 89 70 51 74 115 171 174 178 179 171 161 110 102 51 161 228 231 222 212 213 207 212 217 216 216 228 225 219 227 245 237
257 254 259 267 284 267 195 274 266 278 292 285 251 190 195 164 126 118 94 65 64 73 109 107 174 184 177 163 165 168 185 189 214 219 206 215 215 218 216 216 210 214 215 223 225 223 223 220 245
273 277 254 247 260 287 274 278 285 300 284 287 239 225 194 176 150 132 114 95 56 55 82 127 138 170 173 176 170 174 188 202 188 197 211 222 223 227 226 220 216 215 218 226 227 231 223 233 245
277 277 277 260 247 254 265 172 279 260 264 280 280 225 193 159 147 129 121 105 72 40 45 60 135 142 171 177 162 169 183 185 180 202 237 255 256 244 234 229 230 234 236 224 229 230 238 233 241
273 273 274 260 247 248 251 219 235 257 254 259 274 283 183 148 141 137 129 130 134 121 84 97 102 90 107 128 148 162 170 170 185 244 257 273 281 285 282 234 223 226 216 226 228 238 243 241 240
267 261 247 257 248 255 247 248 244 252 273 296 245 183 151 150 148 150 145 144 135 99 54 52 86 83 76 82 73 64 53 56 24 346 328 319 302 288 309 308 288 279 246 229 233 234 242 245 246
313 291 329 297 256 240 240 250 242 272 279 274 230 173 166 161 165 149 150 142 126 100 65 79 82 73 70 74 70 61 61 60 48 35 39 22 13 5 2 1 355 342 320 287 263 243 251 244 243
202 268 287 295 267 270 266 244 247 257 271 315 336 320 197 176 150 147 135 122 113 101 85 79 83 86 85 78 73 70 63 57 58 54 40 33 22 15 15 8 355 348 345 343 315 264 266 273 261
307 215 345 312 314 252 269 267 262 254 272 282 305 328 239 182 150 140 134 129 118 104 86 71 68 75 71 71 71 68 59 56 57 52 42 29 32 19 13 7 10 12 13 6 5 1 333 293 289
275 215 197 260 282 320 256 259 272 293 321 326 327 312 256 162 145 137 134 125 115 107 98 85 77 89 86 82 81 78 70 66 62 53 45 32 30 17 18 19 25 33 17 5 5 1 2 9 0